RYR84KK LEAM-EBCI

Flight info

Callsign RYR84KK
Flight time N/A
Altitude 34000
Route AGIDO M192 ARPEX DCT BAZAS M192 BLN N865 VTB N867 RBO DCT OSTIX N867 DGO L176 LUSEM DCT LULUT DCT ADABI DCT BOKNO UN858 VANAD UN874 BAMES UT191 PODEM UN873 BAZOS DCT BELDI DCT VEKIN Z173 ARVOL
Aircraft B38M/M-SDE1FGHILORVWXY/HB1

Departure

Time 2026-05-07 13:40
Airport Almería Airport (LEAM)

Arrival

Time N/A
Airport Brussels South Charleroi Airport (EBCI)
Time Latitude Longitude Altitude Speed Heading
2026-05-07 13:12 36.84694 -2.37091 59 ft 0 kts 115°
2026-05-07 13:31 36.84689 -2.37085 59 ft 4 kts 139°
2026-05-07 13:31 36.84665 -2.37078 59 ft 4 kts 180°
2026-05-07 13:31 36.84638 -2.37084 59 ft 4 kts 195°
2026-05-07 13:32 36.84622 -2.37094 53 ft 4 kts 242°
2026-05-07 13:32 36.84617 -2.37118 58 ft 0 kts 73°
2026-05-07 13:35 36.84621 -2.37102 54 ft 6 kts 73°
2026-05-07 13:35 36.84643 -2.37011 56 ft 14 kts 75°
2026-05-07 13:36 36.84618 -2.36893 58 ft 15 kts 106°
2026-05-07 13:36 36.84628 -2.36764 57 ft 16 kts 74°
2026-05-07 13:36 36.84660 -2.36631 61 ft 16 kts 73°
2026-05-07 13:36 36.84694 -2.36492 62 ft 17 kts 73°
2026-05-07 13:37 36.84729 -2.36348 64 ft 18 kts 73°
2026-05-07 13:37 36.84765 -2.36199 70 ft 18 kts 73°
2026-05-07 13:37 36.84804 -2.36043 68 ft 19 kts 72°
2026-05-07 13:37 36.84844 -2.35882 72 ft 20 kts 73°
2026-05-07 13:38 36.84885 -2.35716 71 ft 20 kts 73°
2026-05-07 13:38 36.84927 -2.35544 69 ft 21 kts 73°
2026-05-07 13:38 36.84937 -2.35389 83 ft 18 kts 113°
2026-05-07 13:38 36.84830 -2.35336 82 ft 19 kts 204°
2026-05-07 13:39 36.84769 -2.35485 68 ft 22 kts 252°
2026-05-07 13:39 36.84763 -2.35507 72 ft 0 kts 252°
2026-05-07 13:39 36.84743 -2.35588 77 ft 41 kts 253°
2026-05-07 13:40 36.84570 -2.36296 62 ft 127 kts 253°
2026-05-07 13:40 36.84249 -2.37607 293 ft 176 kts 252°
2026-05-07 13:40 36.83865 -2.39200 850 ft 208 kts 251°
2026-05-07 13:40 36.83463 -2.40989 1702 ft 214 kts 250°
2026-05-07 13:41 36.82999 -2.42751 2677 ft 216 kts 251°
2026-05-07 13:41 36.82530 -2.44554 3542 ft 220 kts 252°
2026-05-07 13:41 36.82060 -2.46378 4417 ft 222 kts 252°
2026-05-07 13:41 36.81460 -2.48132 5252 ft 224 kts 232°
2026-05-07 13:42 36.80247 -2.49318 6101 ft 226 kts 201°
2026-05-07 13:42 36.78674 -2.49591 6898 ft 229 kts 173°
2026-05-07 13:42 36.77122 -2.49108 7670 ft 233 kts 165°
2026-05-07 13:42 36.75540 -2.48548 8241 ft 238 kts 165°
2026-05-07 13:43 36.73962 -2.47976 8437 ft 240 kts 165°
2026-05-07 13:43 36.72379 -2.47263 8410 ft 245 kts 149°
2026-05-07 13:43 36.71186 -2.45727 8375 ft 248 kts 117°
2026-05-07 13:43 36.70778 -2.43682 8394 ft 251 kts 89°
2026-05-07 13:44 36.71115 -2.41544 8410 ft 255 kts 73°
2026-05-07 13:44 36.71620 -2.39415 8407 ft 257 kts 73°
2026-05-07 13:44 36.72128 -2.37279 8412 ft 257 kts 73°
2026-05-07 13:44 36.72642 -2.35144 8414 ft 257 kts 73°
2026-05-07 13:45 36.73160 -2.33009 8411 ft 257 kts 73°
2026-05-07 13:45 36.73822 -2.30909 8760 ft 265 kts 56°
2026-05-07 13:45 36.75171 -2.29289 9274 ft 280 kts 27°
2026-05-07 13:45 36.77069 -2.28620 9778 ft 292 kts 360°
2026-05-07 13:46 36.79118 -2.28668 10380 ft 302 kts 358°
2026-05-07 13:46 36.81284 -2.28674 10784 ft 319 kts 358°
2026-05-07 13:46 36.83551 -2.28683 11309 ft 332 kts 358°
2026-05-07 13:46 36.85865 -2.28696 12113 ft 334 kts 358°
2026-05-07 13:47 36.88205 -2.28711 12866 ft 339 kts 357°
2026-05-07 13:47 36.90576 -2.28727 13642 ft 343 kts 357°
2026-05-07 13:47 36.92975 -2.28744 14341 ft 347 kts 357°
2026-05-07 13:47 36.95400 -2.28761 15041 ft 350 kts 356°
2026-05-07 13:48 36.97848 -2.28778 15753 ft 354 kts 356°
2026-05-07 13:48 37.00323 -2.28796 16438 ft 358 kts 355°
2026-05-07 13:48 37.02762 -2.29279 17083 ft 354 kts 336°
2026-05-07 13:48 37.04900 -2.30749 17699 ft 351 kts 317°
2026-05-07 13:49 37.06522 -2.33004 18314 ft 348 kts 300°
2026-05-07 13:49 37.07784 -2.35602 18848 ft 351 kts 297°
2026-05-07 13:49 37.09006 -2.38251 19434 ft 352 kts 296°
2026-05-07 13:49 37.10201 -2.40928 20035 ft 353 kts 296°
2026-05-07 13:50 37.11387 -2.43630 20628 ft 354 kts 296°
2026-05-07 13:50 37.12565 -2.46345 21215 ft 356 kts 295°
2026-05-07 13:50 37.13727 -2.49043 21795 ft 357 kts 295°
2026-05-07 13:50 37.14906 -2.51790 22361 ft 359 kts 295°
2026-05-07 13:51 37.16090 -2.54553 22934 ft 361 kts 295°
2026-05-07 13:51 37.17277 -2.57329 23507 ft 362 kts 295°
2026-05-07 13:51 37.18470 -2.60120 23996 ft 363 kts 295°
2026-05-07 13:51 37.19871 -2.62762 24485 ft 368 kts 310°
2026-05-07 13:52 37.21809 -2.64891 25029 ft 371 kts 315°
2026-05-07 13:52 37.23785 -2.66987 25475 ft 373 kts 315°
2026-05-07 13:52 37.25777 -2.69077 25978 ft 374 kts 315°
2026-05-07 13:52 37.27779 -2.71162 26442 ft 375 kts 315°
2026-05-07 13:53 37.29794 -2.73251 26927 ft 376 kts 316°
2026-05-07 13:53 37.31819 -2.75348 27360 ft 378 kts 316°
2026-05-07 13:53 37.33852 -2.77453 27786 ft 379 kts 316°
2026-05-07 13:53 37.35885 -2.79560 28288 ft 379 kts 316°
2026-05-07 13:54 37.37920 -2.81671 28700 ft 380 kts 316°
2026-05-07 13:54 37.39959 -2.83787 29106 ft 381 kts 315°
2026-05-07 13:54 37.42014 -2.85912 29487 ft 384 kts 316°
2026-05-07 13:54 37.44081 -2.88044 29888 ft 385 kts 315°
2026-05-07 13:55 37.46157 -2.90187 30253 ft 387 kts 315°
2026-05-07 13:55 37.48238 -2.92338 30584 ft 388 kts 315°
2026-05-07 13:55 37.50326 -2.94496 30957 ft 389 kts 315°
2026-05-07 13:55 37.52411 -2.96655 31412 ft 387 kts 315°
2026-05-07 13:56 37.54487 -2.98805 31831 ft 386 kts 315°
2026-05-07 13:56 37.56556 -3.00949 32255 ft 384 kts 315°
2026-05-07 13:56 37.58616 -3.03086 32676 ft 383 kts 315°
2026-05-07 13:56 37.60668 -3.05218 33078 ft 382 kts 315°
2026-05-07 13:57 37.62712 -3.07343 33480 ft 381 kts 315°
2026-05-07 13:57 37.64756 -3.09469 33849 ft 381 kts 315°
2026-05-07 13:57 37.66807 -3.11604 33971 ft 382 kts 314°
2026-05-07 13:58 37.70874 -3.15841 33966 ft 378 kts 315°
2026-05-07 13:58 37.74923 -3.20065 33959 ft 377 kts 315°
2026-05-07 13:59 37.78965 -3.24287 33955 ft 377 kts 315°
2026-05-07 13:59 37.83002 -3.28511 33955 ft 376 kts 315°
2026-05-07 14:00 37.87039 -3.32738 33957 ft 376 kts 315°
2026-05-07 14:00 37.91042 -3.36938 33950 ft 376 kts 315°
2026-05-07 14:01 37.95069 -3.41169 33951 ft 376 kts 315°
2026-05-07 14:01 37.99093 -3.45404 33949 ft 376 kts 315°
2026-05-07 14:02 38.03121 -3.49648 33949 ft 377 kts 315°
2026-05-07 14:02 38.07147 -3.53896 33940 ft 376 kts 315°
2026-05-07 14:03 38.11169 -3.58147 33934 ft 376 kts 315°
2026-05-07 14:03 38.15682 -3.61583 33935 ft 394 kts 338°
2026-05-07 14:03 38.18460 -3.62005 33937 ft 412 kts 352°
2026-05-07 14:04 38.21352 -3.61780 33936 ft 417 kts 354°
2026-05-07 14:04 38.26184 -3.61392 33941 ft 420 kts 355°
2026-05-07 14:05 38.32012 -3.60852 33940 ft 421 kts 355°
2026-05-07 14:05 38.37859 -3.60289 33938 ft 421 kts 355°
2026-05-07 14:06 38.43711 -3.59721 33943 ft 422 kts 355°
2026-05-07 14:06 38.49576 -3.59152 33936 ft 423 kts 356°
2026-05-07 14:07 38.55447 -3.58581 33937 ft 424 kts 356°
2026-05-07 14:07 38.61330 -3.58008 33939 ft 424 kts 356°
2026-05-07 14:08 38.67213 -3.57433 33944 ft 425 kts 356°
2026-05-07 14:08 38.73112 -3.56857 33941 ft 425 kts 356°
2026-05-07 14:09 38.79016 -3.56278 33938 ft 426 kts 356°
2026-05-07 14:09 38.84926 -3.55699 33945 ft 426 kts 357°
2026-05-07 14:10 38.90842 -3.55118 33939 ft 426 kts 357°
2026-05-07 14:10 38.96761 -3.54536 33939 ft 427 kts 357°
2026-05-07 14:11 39.02688 -3.53949 33934 ft 427 kts 357°
2026-05-07 14:11 39.08580 -3.53364 33934 ft 428 kts 357°
2026-05-07 14:12 39.14514 -3.52773 33938 ft 428 kts 358°
2026-05-07 14:12 39.20459 -3.52181 33939 ft 429 kts 358°
2026-05-07 14:13 39.26407 -3.51587 33937 ft 429 kts 358°
2026-05-07 14:13 39.32365 -3.50991 33937 ft 430 kts 358°
2026-05-07 14:14 39.38335 -3.50393 33936 ft 431 kts 358°
2026-05-07 14:14 39.44313 -3.49793 33934 ft 431 kts 358°
2026-05-07 14:15 39.50305 -3.49191 33938 ft 432 kts 359°
2026-05-07 14:15 39.56302 -3.48587 33937 ft 433 kts 359°
2026-05-07 14:16 39.62312 -3.47986 33936 ft 433 kts 359°
2026-05-07 14:16 39.68328 -3.47382 33933 ft 434 kts 359°
2026-05-07 14:17 39.74356 -3.46777 33934 ft 435 kts 359°
2026-05-07 14:17 39.80383 -3.45855 33937 ft 438 kts
2026-05-07 14:18 39.86417 -3.44605 33935 ft 439 kts
2026-05-07 14:18 39.92462 -3.43397 33940 ft 439 kts
2026-05-07 14:19 39.98512 -3.42193 33935 ft 440 kts
2026-05-07 14:19 40.04569 -3.40985 33933 ft 441 kts
2026-05-07 14:20 40.10639 -3.39773 33937 ft 441 kts
2026-05-07 14:20 40.16710 -3.38559 33934 ft 441 kts
2026-05-07 14:21 40.22786 -3.37341 33929 ft 442 kts
2026-05-07 14:21 40.28865 -3.36121 33942 ft 442 kts
2026-05-07 14:22 40.34958 -3.34896 33939 ft 443 kts
2026-05-07 14:22 40.41060 -3.33666 33946 ft 444 kts
2026-05-07 14:23 40.47131 -3.32440 33944 ft 445 kts
2026-05-07 14:23 40.53255 -3.31202 33937 ft 445 kts
2026-05-07 14:24 40.59389 -3.29959 33946 ft 446 kts
2026-05-07 14:24 40.65531 -3.28712 33947 ft 447 kts
2026-05-07 14:25 40.71681 -3.27462 33945 ft 447 kts
2026-05-07 14:25 40.77832 -3.26209 33952 ft 448 kts
2026-05-07 14:26 40.83992 -3.24952 33957 ft 448 kts
2026-05-07 14:26 40.90144 -3.23578 33950 ft 448 kts
2026-05-07 14:27 40.96304 -3.22201 33950 ft 449 kts
2026-05-07 14:27 41.02467 -3.20822 33953 ft 449 kts
2026-05-07 14:28 41.08632 -3.19441 33951 ft 450 kts
2026-05-07 14:28 41.14818 -3.18052 33945 ft 451 kts
2026-05-07 14:29 41.21007 -3.16660 33934 ft 451 kts
2026-05-07 14:29 41.27196 -3.15264 33935 ft 451 kts
2026-05-07 14:30 41.33390 -3.13866 33928 ft 452 kts
2026-05-07 14:30 41.39590 -3.12463 33926 ft 452 kts
2026-05-07 14:31 41.45791 -3.11057 33919 ft 452 kts
2026-05-07 14:31 41.52002 -3.09649 33917 ft 453 kts
2026-05-07 14:32 41.58217 -3.08239 33921 ft 453 kts
2026-05-07 14:32 41.64443 -3.06825 33917 ft 454 kts
2026-05-07 14:33 41.70671 -3.05407 33923 ft 454 kts
2026-05-07 14:33 41.76898 -3.03978 33913 ft 454 kts
2026-05-07 14:34 41.83125 -3.02544 33916 ft 454 kts
2026-05-07 14:34 41.89352 -3.01108 33918 ft 455 kts
2026-05-07 14:35 41.95557 -2.99674 33920 ft 456 kts
2026-05-07 14:35 42.01815 -2.98226 33914 ft 457 kts
2026-05-07 14:36 42.08081 -2.96772 33907 ft 457 kts
2026-05-07 14:36 42.14361 -2.95312 33914 ft 458 kts
2026-05-07 14:37 42.20647 -2.93847 33901 ft 458 kts
2026-05-07 14:37 42.30076 -2.91646 33907 ft 459 kts
2026-05-07 14:38 42.36378 -2.90170 33902 ft 460 kts
2026-05-07 14:38 42.42684 -2.88629 33893 ft 461 kts 14°
2026-05-07 14:39 42.45638 -2.86990 33894 ft 459 kts 32°
2026-05-07 14:39 42.48184 -2.84397 33907 ft 460 kts 41°
2026-05-07 14:39 42.53052 -2.78734 33902 ft 462 kts 42°
2026-05-07 14:40 42.57874 -2.72966 33904 ft 462 kts 43°
2026-05-07 14:40 42.62682 -2.67160 33909 ft 462 kts 43°
2026-05-07 14:41 42.67485 -2.61344 33899 ft 463 kts 43°
2026-05-07 14:41 42.72254 -2.55557 33914 ft 463 kts 43°
2026-05-07 14:42 42.77062 -2.49709 33898 ft 464 kts 43°
2026-05-07 14:42 42.81877 -2.43839 33903 ft 464 kts 43°
2026-05-07 14:43 42.86688 -2.37963 33902 ft 465 kts 43°
2026-05-07 14:43 42.91498 -2.32074 33910 ft 465 kts 43°
2026-05-07 14:44 42.96314 -2.26167 33896 ft 465 kts 43°
2026-05-07 14:44 43.01125 -2.20242 33903 ft 466 kts 43°
2026-05-07 14:45 43.05939 -2.14302 33905 ft 466 kts 43°
2026-05-07 14:45 43.10744 -2.08362 33908 ft 466 kts 43°
2026-05-07 14:46 43.15543 -2.02418 33908 ft 465 kts 43°
2026-05-07 14:46 43.20342 -1.96463 33905 ft 465 kts 44°
2026-05-07 14:47 43.25093 -1.90553 33905 ft 464 kts 44°
2026-05-07 14:47 43.29880 -1.84589 33914 ft 465 kts 43°
2026-05-07 14:48 43.32472 -1.81949 33906 ft 465 kts 29°
2026-05-07 14:48 43.35302 -1.79798 33914 ft 466 kts 30°
2026-05-07 14:48 43.40752 -1.74981 33911 ft 466 kts 34°
2026-05-07 14:49 43.46165 -1.70067 33912 ft 466 kts 34°
2026-05-07 14:49 43.51596 -1.65164 33904 ft 467 kts 34°
2026-05-07 14:50 43.57028 -1.60251 33907 ft 467 kts 34°
2026-05-07 14:50 43.62455 -1.55332 33908 ft 467 kts 34°
2026-05-07 14:51 43.67870 -1.50413 33910 ft 467 kts 34°
2026-05-07 14:51 43.73298 -1.45473 33919 ft 467 kts 34°
2026-05-07 14:52 43.77848 -1.41322 33919 ft 468 kts 34°
2026-05-07 14:52 43.83279 -1.36358 33928 ft 468 kts 34°
2026-05-07 14:53 43.88675 -1.31415 33924 ft 468 kts 34°
2026-05-07 14:53 43.94110 -1.26425 33933 ft 469 kts 34°
2026-05-07 14:54 43.99540 -1.21428 33931 ft 468 kts 34°
2026-05-07 14:54 44.04968 -1.16423 33938 ft 468 kts 34°
2026-05-07 14:55 44.10389 -1.11412 33942 ft 468 kts 34°
2026-05-07 14:55 44.15810 -1.06392 33932 ft 468 kts 34°
2026-05-07 14:56 44.21224 -1.01364 33939 ft 468 kts 34°
2026-05-07 14:56 44.26638 -0.96327 33938 ft 467 kts 34°
2026-05-07 14:57 44.32041 -0.91289 33941 ft 467 kts 34°
2026-05-07 14:57 44.37445 -0.86240 33944 ft 467 kts 34°
2026-05-07 14:58 44.43150 -0.81977 33948 ft 466 kts 22°
2026-05-07 14:58 44.49110 -0.78343 33947 ft 467 kts 23°
2026-05-07 14:59 44.55065 -0.74706 33946 ft 467 kts 23°
2026-05-07 14:59 44.61019 -0.71062 33955 ft 467 kts 23°
2026-05-07 15:00 44.66972 -0.67411 33956 ft 466 kts 23°
2026-05-07 15:00 44.72918 -0.63756 33963 ft 467 kts 23°
2026-05-07 15:01 44.78824 -0.60120 33974 ft 466 kts 23°
2026-05-07 15:01 44.84759 -0.56453 33963 ft 466 kts 23°
2026-05-07 15:02 44.90693 -0.52780 33965 ft 465 kts 23°
2026-05-07 15:02 44.96626 -0.49101 33964 ft 465 kts 23°
2026-05-07 15:03 45.02545 -0.45421 33970 ft 465 kts 22°
2026-05-07 15:03 45.08467 -0.41730 33964 ft 465 kts 22°
2026-05-07 15:04 45.14377 -0.38040 33975 ft 465 kts 22°
2026-05-07 15:04 45.20296 -0.34335 33975 ft 464 kts 22°
2026-05-07 15:05 45.26204 -0.30629 33972 ft 464 kts 22°
2026-05-07 15:05 45.32107 -0.26917 33966 ft 464 kts 22°
2026-05-07 15:06 45.38004 -0.23200 33974 ft 463 kts 22°
2026-05-07 15:06 45.43854 -0.19505 33974 ft 463 kts 22°
2026-05-07 15:07 45.49742 -0.15777 33975 ft 463 kts 22°
2026-05-07 15:07 45.55624 -0.12045 33972 ft 463 kts 22°
2026-05-07 15:08 45.61500 -0.08307 33970 ft 462 kts 22°
2026-05-07 15:08 45.67370 -0.04565 33973 ft 462 kts 22°
2026-05-07 15:09 45.73237 -0.00816 33965 ft 462 kts 22°
2026-05-07 15:09 45.79101 0.02939 33971 ft 462 kts 22°
2026-05-07 15:10 45.84964 0.06703 33973 ft 461 kts 22°
2026-05-07 15:10 45.90825 0.10474 33978 ft 461 kts 22°
2026-05-07 15:11 45.96680 0.14250 33976 ft 461 kts 22°
2026-05-07 15:11 46.02533 0.18033 33971 ft 461 kts 22°
2026-05-07 15:12 46.08384 0.21824 33972 ft 461 kts 22°
2026-05-07 15:12 46.14231 0.25622 33983 ft 461 kts 22°
2026-05-07 15:13 46.20076 0.29427 33982 ft 461 kts 22°
2026-05-07 15:13 46.25874 0.33210 33990 ft 460 kts 22°
2026-05-07 15:14 46.31746 0.37051 33971 ft 460 kts 22°
2026-05-07 15:14 46.37532 0.40843 33982 ft 460 kts 22°
2026-05-07 15:15 46.43351 0.44664 33999 ft 459 kts 22°
2026-05-07 15:15 46.49164 0.48491 33997 ft 459 kts 22°
2026-05-07 15:16 46.54973 0.52320 33990 ft 458 kts 21°
2026-05-07 15:16 46.57980 0.53737 33991 ft 451 kts
2026-05-07 15:16 46.61054 0.54686 33978 ft 453 kts 10°
2026-05-07 15:17 46.67204 0.56728 33994 ft 453 kts
2026-05-07 15:17 46.73343 0.58754 33992 ft 452 kts
2026-05-07 15:18 46.79475 0.60781 33991 ft 452 kts 10°
2026-05-07 15:18 46.85601 0.62811 33989 ft 451 kts 10°
2026-05-07 15:19 46.91713 0.64840 33991 ft 451 kts 10°
2026-05-07 15:19 46.97823 0.66874 33990 ft 450 kts 10°
2026-05-07 15:20 47.03935 0.68904 33994 ft 449 kts
2026-05-07 15:20 47.10104 0.69720 33995 ft 446 kts
2026-05-07 15:21 47.16285 0.70371 34005 ft 445 kts
2026-05-07 15:21 47.22424 0.71013 34012 ft 444 kts
2026-05-07 15:22 47.28591 0.71658 34018 ft 444 kts
2026-05-07 15:22 47.34755 0.72304 34022 ft 444 kts
2026-05-07 15:23 47.40917 0.72951 34023 ft 444 kts
2026-05-07 15:23 47.47073 0.73599 34025 ft 443 kts
2026-05-07 15:24 47.50134 0.74203 34006 ft 446 kts 13°
2026-05-07 15:24 47.53073 0.75672 34024 ft 447 kts 15°
2026-05-07 15:24 47.59003 0.78512 34017 ft 448 kts 16°
2026-05-07 15:25 47.64902 0.81407 34014 ft 447 kts 16°
2026-05-07 15:25 47.70813 0.84324 34010 ft 447 kts 16°
2026-05-07 15:26 47.76706 0.87241 34010 ft 446 kts 16°
2026-05-07 15:26 47.82596 0.90163 34004 ft 446 kts 16°
2026-05-07 15:27 47.88469 0.93124 34010 ft 446 kts 17°
2026-05-07 15:27 47.94338 0.96089 34010 ft 445 kts 17°
2026-05-07 15:28 48.00199 0.99056 34008 ft 444 kts 17°
2026-05-07 15:28 48.06048 1.02025 34010 ft 444 kts 17°
2026-05-07 15:29 48.11861 1.04982 34010 ft 444 kts 17°
2026-05-07 15:29 48.17706 1.07962 34013 ft 444 kts 17°
2026-05-07 15:30 48.23544 1.10937 34015 ft 443 kts 17°
2026-05-07 15:30 48.29377 1.13910 34016 ft 443 kts 17°
2026-05-07 15:31 48.35211 1.16891 34018 ft 442 kts 17°
2026-05-07 15:31 48.41031 1.19871 34016 ft 442 kts 17°
2026-05-07 15:32 48.46844 1.22855 34022 ft 442 kts 17°
2026-05-07 15:32 48.52664 1.25850 34021 ft 441 kts 17°
2026-05-07 15:33 48.58480 1.28789 34027 ft 441 kts 16°
2026-05-07 15:33 48.64297 1.31720 34028 ft 440 kts 17°
2026-05-07 15:34 48.70100 1.34652 34030 ft 440 kts 17°
2026-05-07 15:34 48.75906 1.37594 34035 ft 440 kts 17°
2026-05-07 15:35 48.81708 1.40540 34038 ft 440 kts 17°
2026-05-07 15:35 48.87512 1.43496 34042 ft 440 kts 17°
2026-05-07 15:36 48.93282 1.46440 34044 ft 440 kts 17°
2026-05-07 15:36 48.99143 1.49032 34042 ft 436 kts
2026-05-07 15:37 49.05147 1.50384 34045 ft 437 kts
2026-05-07 15:37 49.11164 1.51792 34047 ft 437 kts
2026-05-07 15:38 49.17185 1.53202 34041 ft 437 kts
2026-05-07 15:38 49.23194 1.54656 34041 ft 438 kts 11°
2026-05-07 15:39 49.26050 1.56277 34028 ft 440 kts 28°
2026-05-07 15:39 49.28516 1.59064 34053 ft 443 kts 41°
2026-05-07 15:39 49.33074 1.65490 34041 ft 446 kts 42°
2026-05-07 15:40 49.37579 1.72013 34047 ft 445 kts 42°
2026-05-07 15:40 49.42067 1.78589 34041 ft 445 kts 43°
2026-05-07 15:41 49.45786 1.84056 34047 ft 445 kts 43°
2026-05-07 15:41 49.50259 1.90647 34049 ft 445 kts 43°
2026-05-07 15:42 49.55453 1.98327 34047 ft 445 kts 43°
2026-05-07 15:42 49.59918 2.04949 34052 ft 446 kts 43°
2026-05-07 15:43 49.63655 2.10504 34050 ft 445 kts 43°
2026-05-07 15:43 49.68014 2.17001 33958 ft 427 kts 43°
2026-05-07 15:44 49.70136 2.20169 33512 ft 423 kts 43°
2026-05-07 15:44 49.72248 2.23327 32961 ft 422 kts 43°
2026-05-07 15:44 49.74348 2.26471 32477 ft 419 kts 43°
2026-05-07 15:44 49.76435 2.29599 32031 ft 416 kts 43°
2026-05-07 15:45 49.78500 2.32698 31596 ft 413 kts 43°
2026-05-07 15:45 49.80554 2.35784 31151 ft 410 kts 43°
2026-05-07 15:45 49.82594 2.38853 30714 ft 408 kts 43°
2026-05-07 15:45 49.84623 2.41909 30281 ft 405 kts 43°
2026-05-07 15:46 49.88636 2.47966 29356 ft 400 kts 43°
2026-05-07 15:46 49.90610 2.50952 28942 ft 396 kts 43°
2026-05-07 15:46 49.92575 2.53924 28541 ft 392 kts 43°
2026-05-07 15:47 49.94512 2.56859 28145 ft 388 kts 43°
2026-05-07 15:47 49.96439 2.59784 27670 ft 387 kts 43°
2026-05-07 15:47 49.98362 2.62708 27286 ft 384 kts 43°
2026-05-07 15:47 50.00262 2.65599 26936 ft 380 kts 43°
2026-05-07 15:48 50.02141 2.68462 26561 ft 377 kts 43°
2026-05-07 15:48 50.04006 2.71307 26184 ft 375 kts 43°
2026-05-07 15:48 50.05864 2.74143 25811 ft 372 kts 43°
2026-05-07 15:48 50.07703 2.76954 25444 ft 370 kts 43°
2026-05-07 15:49 50.09535 2.79758 25077 ft 368 kts 43°
2026-05-07 15:49 50.11353 2.82543 24715 ft 366 kts 43°
2026-05-07 15:49 50.13163 2.85320 24348 ft 364 kts 43°
2026-05-07 15:49 50.14964 2.88085 23990 ft 362 kts 43°
2026-05-07 15:50 50.16754 2.90837 23633 ft 361 kts 44°
2026-05-07 15:50 50.18536 2.93578 23222 ft 359 kts 44°
2026-05-07 15:50 50.20306 2.96306 22838 ft 356 kts 44°
2026-05-07 15:50 50.22064 2.99016 22486 ft 353 kts 44°
2026-05-07 15:51 50.23806 3.01706 22142 ft 350 kts 44°
2026-05-07 15:51 50.25530 3.04371 21803 ft 347 kts 44°
2026-05-07 15:51 50.27240 3.07016 21454 ft 344 kts 44°
2026-05-07 15:51 50.28934 3.09640 21121 ft 342 kts 44°
2026-05-07 15:52 50.30614 3.12246 20787 ft 339 kts 44°
2026-05-07 15:52 50.32285 3.14838 20449 ft 337 kts 44°
2026-05-07 15:52 50.33943 3.17415 20120 ft 335 kts 44°
2026-05-07 15:52 50.35588 3.19975 19789 ft 332 kts 44°
2026-05-07 15:53 50.37222 3.22518 19463 ft 330 kts 44°
2026-05-07 15:53 50.38844 3.25044 19137 ft 328 kts 44°
2026-05-07 15:53 50.40457 3.27559 18790 ft 327 kts 44°
2026-05-07 15:53 50.42068 3.30075 18439 ft 326 kts 44°
2026-05-07 15:54 50.43666 3.32571 18087 ft 324 kts 44°
2026-05-07 15:54 50.45261 3.35066 17749 ft 321 kts 44°
2026-05-07 15:54 50.46834 3.37529 17421 ft 319 kts 44°
2026-05-07 15:54 50.48395 3.39975 17101 ft 316 kts 44°
2026-05-07 15:55 50.49942 3.42400 16789 ft 313 kts 44°
2026-05-07 15:55 50.51474 3.44806 16477 ft 310 kts 44°
2026-05-07 15:55 50.52993 3.47194 16167 ft 307 kts 44°
2026-05-07 15:55 50.54333 3.49717 15887 ft 305 kts 62°
2026-05-07 15:56 50.55082 3.52843 15698 ft 308 kts 72°
2026-05-07 15:56 50.55739 3.56074 15469 ft 311 kts 72°
2026-05-07 15:56 50.56383 3.59323 15257 ft 311 kts 73°
2026-05-07 15:56 50.57013 3.62571 15030 ft 310 kts 73°
2026-05-07 15:57 50.57633 3.65808 14802 ft 308 kts 73°
2026-05-07 15:57 50.58243 3.69025 14578 ft 307 kts 73°
2026-05-07 15:57 50.58850 3.72238 14361 ft 306 kts 73°
2026-05-07 15:57 50.59452 3.75438 14129 ft 304 kts 74°
2026-05-07 15:58 50.60051 3.78625 13904 ft 303 kts 74°
2026-05-07 15:58 50.60645 3.81798 13655 ft 302 kts 74°
2026-05-07 15:58 50.61238 3.84965 13416 ft 301 kts 74°
2026-05-07 15:58 50.61826 3.88114 13195 ft 300 kts 74°
2026-05-07 15:59 50.62412 3.91256 12963 ft 299 kts 74°
2026-05-07 15:59 50.62995 3.94390 12749 ft 298 kts 74°
2026-05-07 15:59 50.63576 3.97514 12523 ft 297 kts 74°
2026-05-07 15:59 50.64153 4.00626 12308 ft 296 kts 74°
2026-05-07 16:00 50.64727 4.03728 12089 ft 295 kts 74°
2026-05-07 16:00 50.65300 4.06826 11867 ft 294 kts 74°
2026-05-07 16:00 50.65869 4.09911 11656 ft 293 kts 74°
2026-05-07 16:00 50.66437 4.12989 11439 ft 292 kts 74°
2026-05-07 16:01 50.67000 4.16055 11226 ft 291 kts 74°
2026-05-07 16:01 50.67562 4.19112 11016 ft 290 kts 74°
2026-05-07 16:01 50.68122 4.22160 10799 ft 289 kts 74°
2026-05-07 16:01 50.68503 4.25246 10553 ft 287 kts 91°
2026-05-07 16:02 50.68068 4.28270 10320 ft 283 kts 118°
2026-05-07 16:02 50.66881 4.30683 10127 ft 278 kts 142°
2026-05-07 16:02 50.65273 4.32327 9930 ft 275 kts 151°
2026-05-07 16:02 50.63633 4.33803 9715 ft 274 kts 152°
2026-05-07 16:03 50.61967 4.35260 9494 ft 273 kts 152°
2026-05-07 16:03 50.60280 4.36713 9295 ft 272 kts 152°
2026-05-07 16:03 50.58639 4.38111 9078 ft 272 kts 153°
2026-05-07 16:03 50.56976 4.39516 8886 ft 271 kts 153°
2026-05-07 16:04 50.55319 4.40910 8686 ft 270 kts 153°
2026-05-07 16:04 50.53665 4.42296 8484 ft 269 kts 153°
2026-05-07 16:04 50.52018 4.43675 8293 ft 268 kts 153°
2026-05-07 16:04 50.50374 4.45049 8089 ft 267 kts 153°
2026-05-07 16:05 50.48733 4.46420 7882 ft 267 kts 153°
2026-05-07 16:05 50.47262 4.48164 7652 ft 267 kts 129°
2026-05-07 16:05 50.46430 4.50748 7449 ft 267 kts 105°
2026-05-07 16:05 50.46003 4.53586 7267 ft 267 kts 103°
2026-05-07 16:06 50.45592 4.56422 7068 ft 266 kts 103°
2026-05-07 16:06 50.45191 4.59254 6871 ft 266 kts 103°
2026-05-07 16:06 50.44797 4.62075 6664 ft 264 kts 103°
2026-05-07 16:06 50.44410 4.64865 6481 ft 259 kts 103°
2026-05-07 16:07 50.44044 4.67602 6272 ft 254 kts 99°